TimeCDT,TemperatureF,Dew PointF,Humidity,Sea Level PressureIn,VisibilityMPH,Wind Direction,Wind SpeedMPH,Gust SpeedMPH,PrecipitationIn,Events,Conditions,WindDirDegrees,DateUTC
12:53 AM,63.0,42.1,46,29.94,10.0,SW,9.2,-,N/A,,Clear,230,2013-03-16 05:53:00
1:53 AM,64.0,41.0,43,29.93,10.0,WSW,13.8,-,N/A,,Clear,240,2013-03-16 06:53:00
2:53 AM,62.1,42.1,48,29.93,10.0,WSW,11.5,-,N/A,,Clear,240,2013-03-16 07:53:00
3:53 AM,61.0,43.0,52,29.92,10.0,SW,9.2,-,N/A,,Clear,230,2013-03-16 08:53:00
4:53 AM,59.0,43.0,55,29.92,10.0,SW,8.1,-,N/A,,Clear,230,2013-03-16 09:53:00
5:53 AM,57.0,43.0,59,29.94,10.0,SW,8.1,-,N/A,,Clear,220,2013-03-16 10:53:00
6:53 AM,57.0,44.1,62,29.95,10.0,SW,11.5,-,N/A,,Clear,220,2013-03-16 11:53:00
7:53 AM,57.9,44.1,60,29.96,10.0,SW,16.1,-,N/A,,Clear,230,2013-03-16 12:53:00
8:53 AM,62.1,45.0,53,29.96,10.0,WSW,20.7,26.5,N/A,,Clear,240,2013-03-16 13:53:00
9:53 AM,66.0,46.0,48,29.95,10.0,WSW,17.3,-,N/A,,Clear,240,2013-03-16 14:53:00
10:53 AM,70.0,43.0,38,29.93,10.0,West,18.4,28.8,N/A,,Clear,260,2013-03-16 15:53:00
11:53 AM,73.0,44.1,35,29.93,10.0,West,19.6,24.2,N/A,,Clear,260,2013-03-16 16:53:00
12:53 PM,75.0,46.0,36,29.92,10.0,WSW,19.6,25.3,N/A,,Clear,250,2013-03-16 17:53:00
1:53 PM,75.9,46.9,36,29.90,10.0,WSW,11.5,20.7,N/A,,Clear,240,2013-03-16 18:53:00
2:53 PM,78.1,48.0,35,29.88,10.0,WSW,13.8,21.9,N/A,,Clear,250,2013-03-16 19:53:00
3:53 PM,77.0,46.9,34,29.86,10.0,WSW,16.1,-,N/A,,Clear,240,2013-03-16 20:53:00
4:53 PM,77.0,48.0,36,29.86,10.0,WSW,11.5,-,N/A,,Clear,240,2013-03-16 21:53:00
5:53 PM,75.0,46.9,37,29.86,9.0,WSW,12.7,-,N/A,,Clear,240,2013-03-16 22:53:00
6:53 PM,70.0,48.0,46,29.87,10.0,SW,6.9,-,N/A,,Clear,230,2013-03-16 23:53:00
7:53 PM,68.0,46.9,47,29.88,10.0,SSW,3.5,-,N/A,,Clear,210,2013-03-17 00:53:00
8:53 PM,63.0,48.0,58,29.91,10.0,Calm,Calm,-,N/A,,Clear,0,2013-03-17 01:53:00
9:53 PM,57.0,50.0,77,29.91,9.0,South,3.5,-,N/A,,Clear,170,2013-03-17 02:53:00
10:53 PM,57.0,48.0,72,29.92,10.0,Calm,Calm,-,N/A,,Clear,0,2013-03-17 03:53:00
11:53 PM,55.0,48.9,80,29.92,10.0,Calm,Calm,-,N/A,,Clear,0,2013-03-17 04:53:00